Regional Weather Roundup
Issued by NWS Boston, MA

Home | Current Version | Previous Version | Text Only | Print | Product List | Glossary On
Versions: 1 2 3 4 5 6 7 8 9 10 11 12 13 14 15 16 17 18 19 20 21 22 23 24 25 26 27 28 29 30 31 32 33 34 35 36 37 38 39 40 41 42 43 44 45 46 47 48 49 50
000
ASUS41 KBOX 190510
RWRBOX

REGIONAL WEATHER ROUNDUP
NATIONAL WEATHER SERVICE TAUNTON MA
100 AM EDT SAT AUG 19 2017

NOTE:  "FAIR" INDICATES FEW OR NO CLOUDS BELOW 12,000 FEET WITH NO
SIGNIFICANT WEATHER AND/OR OBSTRUCTIONS TO VISIBILITY.

MAZALL-190600-
EASTERN MASSACHUSETTS

CITY           SKY/WX    TMP DP  RH WIND       PRES   REMARKS
BOSTON         FOG       73  73 100 S6        29.77F VSB 3/4
BEVERLY        CLOUDY    74  74 100 CALM      29.77F FOG
LAWRENCE       CLOUDY    71  68  90 N6        29.80F FOG
BEDFORD        CLOUDY    75  72  90 CALM      29.76F
BLUE HILL        N/A     73  72  96 S9        29.79F
NORWOOD        CLOUDY    77  75  93 S5        29.77F
MARSHFIELD     CLOUDY    75  75 100 VRB7      29.79F
PLYMOUTH       LGT RAIN  74  72  93 S6        29.80F FOG
TAUNTON        CLOUDY    75  72  90 SW8       29.78F
NEW BEDFORD    LGT RAIN  74  72  93 SW12      29.79F
$$

MAZALL-190600-
CAPE COD AND THE ISLANDS

CITY           SKY/WX    TMP DP  RH WIND       PRES   REMARKS
FALMOUTH       DRIZZLE   73  73 100 SW17      29.80F
HYANNIS        TSTM      73  73 100 S18G36    29.77F VSB 1
CHATHAM        TSTM      71  71 100 VRB5G18   29.84R VSB 3/4
PROVINCETOWN   LGT RAIN  72  71  97 S13       29.82F FOG
NANTUCKET      MOCLDY    71  70  96 S21       29.80F
MARTHAS VNYRD  HVY RAIN  73  71  93 S22G33    29.78F FOG
$$

MAZALL-190600-
CENTRAL AND WESTERN MASSACHUSETTS

CITY           SKY/WX    TMP DP  RH WIND       PRES   REMARKS
WORCESTER      CLOUDY    73  71  93 S9        29.81F
FITCHBURG      CLOUDY    70  68  93 NE5       29.79F
ORANGE         CLOUDY    72  72 100 CALM      29.77F FOG
SPRINGFIELD    CLOUDY    76  74  94 S6        29.75F
WESTFIELD      FAIR      74  74 100 CALM      29.77F
NORTH ADAMS    CLOUDY    70  69  97 CALM      29.77F FOG
PITTSFIELD     CLOUDY    72  69  90 SW9       29.80F
$$

RIZALL-190600-
RHODE ISLAND

CITY           SKY/WX    TMP DP  RH WIND       PRES   REMARKS
PROVIDENCE     CLOUDY    75  75 100 S8        29.79F FOG
NEWPORT        CLOUDY    73  73 100 SW8       29.80F FOG
BLOCK ISLAND   LGT RAIN  74  73  97 SW18G25   29.80  FOG
WESTERLY       NOT AVBL
$$

CTZALL-190600-
CONNECTICUT

CITY           SKY/WX    TMP DP  RH WIND       PRES   REMARKS
BRADLEY INTL   CLOUDY    76  75  97 CALM      29.77F
HARTFORD       FAIR      76  75  97 S8        29.76F
BRIDGEPORT     FAIR      75  71  87 SW7       29.78F
DANBURY        CLOUDY    73  72  96 CALM      29.81F
GROTON         CLOUDY    74  73  97 SW5       29.78F
NEW HAVEN      FAIR      74  72  93 SW5       29.79F
CHESTER        MOCLDY    73  73 100 SW5       29.80F
MERIDEN        FAIR      74  74 100 S6        29.78F
WILLIMANTIC    MOCLDY    76  76 100 CALM      29.78F
OXFORD         LGT RAIN  72  71  97 VRB5      29.81F
$$

MEZ002-015-021-024-NHZ003-005-008-011-012-014-VTZ005-008-190600-
NORTHERN NEW ENGLAND

CITY           SKY/WX    TMP DP  RH WIND       PRES   REMARKS
PORTLAND ME    CLOUDY    62  60  93 NW7       29.82S
BANGOR ME      LGT RAIN  61  58  90 E6        29.88F
CONCORD NH     CLOUDY    63  62  97 NW6       29.81F
MANCHESTER NH  CLOUDY    66  62  87 N6        29.78F
NASHUA NH      CLOUDY    66  65  96 VRB5      29.80F
PORTSMOUTH NH  CLOUDY    64  63  96 N5        29.78F
JAFFREY NH     CLOUDY    64  64 100 CALM      29.81F FOG
KEENE NH         N/A    N/A N/A N/A MISG        N/A
BURLINGTON VT  CLOUDY    71  70  96 SE6       29.75F
MT. WASHINGTON LGT RAIN  54  54 100 W30G37      N/A  VSB 0
$$

NYZ052-076-190600-
EASTERN NEW YORK

CITY           SKY/WX    TMP DP  RH WIND       PRES   REMARKS
ALBANY         CLOUDY    72  65  78 W8        29.79F
NEW YORK CITY  LGT RAIN  76  72  87 SW8       29.78F
$$

ANZALL-190600-
MARINE OBSERVATIONS

STATION/POSITION TIME  TEMP    WIND        PRES    VSBY  WAVE
                       AIR SEA DIR/SP/G                  HT/PER
                 (UTC) (F)     (DEG/KT/KT) (MB)    (MI)  (FT/S)
BOSTON BUOY      0450   69 67  200/  4/  4 1008.6F         2/ 4
BUZZARDS BAY     0400   71     190/ 26/ 29 1008.9F
NANTUCKET SOUND  0350   72 71  180/ 25/ 31 1009.6          3/ 4
MASS BAY-STELLWA 0404   69 66  180/ 10/ 12 1008.7R         3/ 5
ISLE OF SHOALS   0400   66     320/  8/  9 1009.2R
S OF BLOCK IS    NOT AVBL
$$

......................KEY.........................
  SKY/WX - SKY CONDITION/PRESENT WEATHER
  TMP    - TEMPERATURE IN FAHRENHEIT
  DWPT   - DEWPOINT IN FAHRENHEIT
  RH     - RELATIVE HUMIDITY IN PERCENT
  WIND   - DIRECTION AND SPEED IN MPH
  PRES   - MEAN SEA LEVEL PRESSURE IN INCHES OF HG
  WCI    - WIND CHILL INDEX
  VSB    - VISIBILITY IN MILES
  HX     - HEAT INDEX
  TC     - TEMPERATURE IN CELSIUS
  VRB    - VARIABLE WIND DIRECTION
  N/A    - NOT AVAILABLE



USA.gov is the U.S. government's official web portal to all federal, state and local government web resources and services.